EDT,Max TemperatureF,Mean TemperatureF,Min TemperatureF,Max Dew PointF,MeanDew PointF,Min DewpointF,Max Humidity, Mean Humidity, Min Humidity, Max Sea Level PressureIn, Mean Sea Level PressureIn, Min Sea Level PressureIn, Max VisibilityMiles, Mean VisibilityMiles, Min VisibilityMiles, Max Wind SpeedMPH, Mean Wind SpeedMPH, Max Gust SpeedMPH,PrecipitationIn, CloudCover, Events, WindDirDegrees
2012-10-1,73,68,62,72,68,63,100,99,94,29.79,29.68,29.61,10,8,3,18,5,24,0.02,8,Rain,142
2012-10-2,71,66,62,72,64,61,100,92,73,30.01,29.81,29.65,10,10,5,9,4,,0.01,8,Rain,166
2012-10-3,69,63,57,61,60,55,100,89,60,30.22,30.12,30.01,10,8,5,5,1,,0.00,4,,153
2012-10-4,77,65,53,63,57,54,100,86,47,30.31,30.25,30.21,10,6,0,7,1,,0.00,3,Fog,11
2012-10-5,78,64,51,63,57,52,100,85,47,30.25,30.15,30.03,10,7,0,5,0,,0.00,3,Fog,178
2012-10-6,68,60,53,63,57,50,100,93,78,30.08,30.03,30.00,10,9,5,13,3,16,0.00,5,,344
2012-10-7,59,54,48,52,46,41,100,80,58,30.16,30.09,30.02,10,10,10,15,8,21,0.00,5,,343
2012-10-8,51,48,46,50,47,45,100,92,82,30.20,30.14,30.08,10,10,5,9,6,,0.00,7,Rain,344
2012-10-9,62,54,46,52,50,46,100,88,59,30.17,30.12,30.06,10,9,5,4,0,,0.00,5,,235
2012-10-10,68,56,44,55,51,45,100,88,60,30.22,30.14,30.08,10,9,5,8,1,,0.00,4,,335
2012-10-11,69,56,42,54,47,41,100,78,35,30.31,30.25,30.21,10,10,10,7,2,,0.00,2,,319
2012-10-12,68,62,55,61,58,54,100,91,78,30.30,30.26,30.22,10,10,5,8,1,,0.00,7,Rain-Thunderstorm,337
2012-10-13,73,64,55,61,55,52,100,76,50,30.35,30.28,30.24,10,7,0,17,4,21,0.00,3,Fog,148
2012-10-14,73,65,57,63,58,52,94,80,69,30.24,30.14,29.98,10,10,10,10,5,17,0.00,5,,163
2012-10-15,71,60,48,64,55,45,100,78,40,29.99,29.95,29.92,10,10,2,13,3,18,0.02,3,Rain-Thunderstorm,321
2012-10-16,69,56,42,54,47,43,100,82,38,30.03,29.97,29.89,10,10,7,8,1,,0.00,0,,350
2012-10-17,73,58,44,52,47,41,100,69,31,29.96,29.89,29.78,10,10,10,14,2,20,0.00,0,,158
2012-10-18,69,60,48,63,55,46,100,85,55,29.85,29.80,29.77,10,9,0,12,5,,0.01,4,Fog-Rain-Thunderstorm,160
2012-10-19,69,55,41,50,42,32,100,70,26,29.83,29.80,29.74,10,9,7,9,2,20,0.00,6,,184
2012-10-20,64,52,41,50,46,41,100,78,49,30.02,29.92,29.83,10,10,10,9,1,,0.00,1,,314
2012-10-21,69,55,41,54,46,41,100,84,43,30.19,30.12,30.02,10,10,10,7,0,,0.00,0,,349
2012-10-22,77,60,42,57,51,43,100,79,41,30.25,30.18,30.13,10,10,10,4,0,,0.00,0,,90
2012-10-23,75,60,46,55,52,46,100,80,41,30.22,30.15,30.11,10,10,7,5,0,,0.00,0,,169
2012-10-24,77,60,42,55,51,43,100,81,39,30.22,30.14,30.08,10,10,7,4,0,,0.00,0,,0
2012-10-25,77,60,44,61,54,45,100,80,47,30.14,30.08,30.04,10,10,10,9,1,,0.00,2,,136
2012-10-26,78,66,53,61,57,54,100,82,44,30.09,30.01,29.92,10,10,7,6,0,,0.00,2,,305
2012-10-27,62,56,50,61,51,46,94,88,82,29.97,29.92,29.88,10,10,10,18,9,25,0.00,7,,344
2012-10-28,50,48,46,46,44,37,100,83,71,29.97,29.89,29.83,10,10,7,20,13,28,0.00,8,Rain,343
2012-10-29,51,45,39,37,33,27,81,60,46,29.97,29.92,29.80,10,10,10,24,14,32,0.01,4,,328
2012-10-30,53,47,41,32,27,21,65,46,28,29.83,29.76,29.71,10,10,10,17,10,31,0.00,2,,304
2012-10-31,60,46,32,32,27,21,100,51,22,29.92,29.87,29.82,10,10,10,14,4,20,0.00,0,,292